Wetbulb
71.04 71.15 71.53 70.97 71.44 72.01 71.07 71.12 71.25 71.03 71.50 71.40 71.50 71.53 71.60 72.27 72.69 73.58 74.33 74.48 74.92 74.31 73.51 73.73 73.59 72.78 73.34 73.22 72.97 72.93 72.23 71.49 71.88 73.03 72.23 71.78 72.09 72.34 72.95 72.79 72.77 72.55 73.21
71.17 71.69 71.07 70.23 71.03 72.16 71.64 71.59 71.19 71.60 71.09 70.35 70.76 71.42 71.65 72.15 72.90 73.07 73.88 74.08 74.51 74.34 74.01 73.80 73.76 73.59 73.21 73.62 72.93 73.09 73.24 72.69 72.35 72.45 72.18 72.33 72.11 72.51 73.22 73.08 72.48 72.39 72.34
71.14 71.93 71.48 69.96 70.34 71.69 71.30 71.69 71.59 71.64 70.50 70.39 70.18 71.11 71.60 71.95 72.57 73.12 73.68 73.71 74.35 75.08 74.95 74.39 74.25 73.99 73.64 73.52 73.39 73.37 72.77 73.14 73.27 72.52 72.68 72.71 72.82 73.73 74.25 73.48 72.56 72.22 71.75
72.12 71.07 70.78 70.34 70.88 71.63 71.15 70.56 71.04 71.10 70.10 69.76 69.56 70.00 70.18 71.06 71.78 72.29 72.74 73.11 73.36 74.18 74.36 75.04 75.48 74.82 74.50 73.77 73.70 73.62 73.68 73.85 73.65 73.76 74.23 74.25 74.02 73.70 73.48 73.66 72.91 72.37 71.46
72.87 70.75 71.48 71.37 71.98 72.02 70.67 70.11 70.86 70.09 69.29 69.44 69.10 69.66 69.74 69.69 70.32 70.77 70.94 71.60 72.37 73.56 73.16 73.16 74.75 75.71 75.40 74.87 74.21 74.09 74.27 75.15 75.07 75.00 74.78 74.23 73.98 73.73 73.86 73.43 73.16 72.56 71.85
72.42 71.81 71.67 71.83 72.04 71.86 70.98 69.62 70.55 68.96 69.01 69.17 68.98 68.93 69.39 69.88 69.83 69.46 69.77 70.36 70.95 71.64 72.22 71.68 72.04 72.17 74.48 74.54 74.22 74.65 75.00 75.64 75.90 75.83 75.28 75.25 74.78 74.35 74.37 73.79 73.17 72.81 72.31
72.54 71.34 71.35 70.93 72.02 71.06 70.93 70.05 69.18 68.73 68.44 68.38 68.26 67.55 67.67 69.00 69.39 69.93 70.55 70.81 70.91 71.35 71.31 71.44 71.14 71.30 71.39 72.64 73.96 74.62 74.75 75.21 75.54 75.71 75.70 75.42 75.54 75.20 74.45 74.08 73.22 72.53 72.46
72.51 72.13 72.01 72.55 71.58 69.49 71.29 71.00 69.64 67.51 67.45 68.13 66.71 64.94 64.03 65.38 66.35 68.50 68.89 69.69 70.38 71.58 72.31 72.50 72.44 72.51 72.56 72.60 72.93 73.38 74.38 74.90 74.98 75.20 75.30 75.18 75.50 75.28 74.60 73.66 72.80 72.67 72.61
72.46 72.09 72.26 72.34 71.23 70.46 70.53 70.80 69.19 68.66 67.22 67.89 68.35 66.84 63.64 62.35 63.24 67.17 67.11 67.66 69.22 69.82 70.84 71.52 72.51 73.19 73.30 72.99 73.01 72.98 73.76 74.02 74.88 75.00 75.61 75.19 75.15 75.29 74.91 74.11 73.11 72.39 72.31
72.39 71.88 72.87 72.84 72.19 70.87 71.22 70.74 69.88 69.04 68.40 67.25 69.31 69.00 66.69 66.02 64.71 63.79 65.60 66.11 67.73 68.14 69.61 70.07 70.64 71.75 72.87 73.14 73.16 73.76 73.60 73.31 73.87 74.45 75.49 75.92 75.15 75.35 75.68 75.00 73.87 72.96 72.39
73.25 72.77 73.36 73.10 72.37 71.75 71.87 72.31 71.12 69.91 68.77 68.62 68.75 67.28 68.43 66.77 66.35 64.16 64.05 66.07 67.96 69.10 69.32 69.28 70.10 70.69 71.46 71.87 72.05 72.36 72.60 72.77 73.20 74.18 74.65 75.43 75.48 75.40 75.36 75.42 75.10 74.18 73.70
73.07 73.24 73.11 72.76 73.00 71.88 71.90 72.35 72.88 71.25 70.89 70.59 70.18 69.56 68.73 66.92 66.03 65.86 64.48 65.83 65.24 68.23 68.76 69.84 69.93 70.33 70.80 71.08 71.43 72.54 72.99 72.71 72.47 72.73 73.10 73.84 74.60 74.90 74.94 75.15 75.70 75.68 75.40
71.88 72.96 73.60 73.09 72.71 71.97 72.45 72.48 72.59 72.55 72.23 71.67 71.97 71.24 69.06 69.44 69.80 67.15 66.25 65.92 65.37 67.51 68.62 69.64 70.05 70.58 70.91 71.66 71.60 71.84 72.46 71.16 70.79 70.09 70.01 70.84 71.73 72.71 73.58 74.23 74.75 75.07 75.68
72.25 73.53 73.65 73.52 73.09 73.30 73.02 72.50 72.31 72.20 72.40 72.10 72.19 72.79 72.27 71.46 71.08 69.22 68.01 66.19 65.91 65.19 66.09 69.69 71.04 71.14 71.42 71.95 71.97 72.20 72.64 69.77 69.32 68.49 68.29 68.81 69.32 70.00 70.74 71.42 71.82 72.31 72.79
72.96 73.35 74.02 73.82 72.95 72.31 73.13 73.17 72.41 71.94 73.06 73.41 72.66 72.47 71.88 72.21 71.94 70.79 70.51 67.52 66.89 65.07 65.35 68.45 69.52 71.78 72.30 73.73 73.33 73.87 73.44 70.81 69.10 68.68 67.99 67.65 68.15 68.68 69.13 69.42 69.59 69.62 69.80
72.44 73.56 73.90 74.32 73.48 72.96 72.56 72.77 72.66 72.77 72.62 72.51 72.52 72.72 72.65 72.45 72.11 71.20 71.03 68.59 67.23 66.44 65.88 67.18 69.62 70.24 72.15 73.53 73.98 75.13 74.75 70.99 70.22 68.67 67.88 67.68 67.76 68.21 68.48 68.66 68.51 68.38 68.53
72.16 72.40 73.39 74.12 73.75 72.63 72.72 72.49 72.52 72.93 72.33 72.44 72.39 72.34 72.28 72.36 71.89 72.06 71.32 71.79 70.48 68.03 68.02 70.39 68.64 71.52 73.13 73.98 75.56 75.66 75.38 75.99 75.41 69.93 68.91 68.19 67.18 67.14 67.40 67.54 67.08 66.84 66.95
72.06 72.50 72.75 73.44 73.75 73.22 73.16 73.19 72.13 73.28 72.18 71.91 72.43 72.14 72.07 72.12 72.43 73.23 72.34 72.08 71.55 71.29 70.41 69.93 70.90 71.37 73.09 74.59 74.82 74.85 75.37 75.75 75.57 71.94 68.44 67.25 66.67 66.42 66.04 65.51 64.92 64.44 63.63
70.82 71.66 72.55 72.54 73.07 73.33 73.32 73.47 72.93 73.10 72.90 72.71 72.52 72.36 72.67 72.54 72.39 72.42 72.53 72.05 71.94 72.04 71.50 70.55 71.01 73.05 73.31 73.47 74.56 75.39 75.45 75.67 75.08 71.65 69.06 68.41 67.32 66.87 66.22 65.03 63.73 62.11 60.00
70.26 70.73 71.85 72.61 73.26 73.54 73.67 73.59 73.29 72.93 72.83 72.87 73.12 73.10 73.37 72.94 73.16 73.21 72.58 72.75 72.77 72.23 72.48 72.08 72.07 71.81 72.21 73.78 73.53 72.66 73.71 75.15 73.94 74.51 72.91 70.17 68.49 68.95 68.20 66.30 63.73 61.04 58.40
70.13 70.67 70.99 72.39 73.28 73.70 73.43 73.71 73.67 73.22 72.91 72.66 72.97 73.12 73.45 73.20 70.47 71.45 73.48 73.84 73.19 72.68 72.71 72.31 72.27 72.17 72.76 72.75 72.97 73.81 72.30 72.96 73.58 74.21 74.02 75.61 75.97 76.30 76.25 70.86 64.18 61.77 59.44
69.92 69.72 70.24 71.27 72.39 73.31 68.55 67.77 72.01 73.58 73.74 73.48 73.24 73.61 73.92 71.51 71.20 67.63 67.16 67.87 72.20 74.05 73.44 72.65 72.91 71.84 73.07 73.02 73.90 72.72 71.98 71.24 70.54 75.18 73.80 73.95 76.16 75.73 75.32 68.51 61.62 60.17 59.13
69.77 69.30 69.61 70.12 70.88 72.24 65.88 65.97 67.80 73.73 73.48 73.50 73.63 73.59 73.06 73.40 71.42 74.21 69.54 66.55 66.71 65.96 68.50 74.42 73.20 73.36 73.41 74.55 74.50 73.47 72.51 71.19 71.27 74.16 73.78 72.61 75.60 74.83 73.33 64.66 60.64 59.60 58.58
68.55 68.96 69.38 69.92 70.05 70.77 64.22 64.35 66.44 72.74 73.31 73.33 73.23 73.36 73.18 73.56 73.32 73.45 73.73 73.51 73.73 73.93 72.59 70.81 72.24 73.98 74.95 75.65 75.12 74.48 73.27 72.49 73.18 74.04 74.87 71.65 75.15 74.15 66.67 64.95 60.66 59.67 58.10
68.11 68.46 68.98 69.06 69.87 70.34 62.34 62.42 65.01 72.04 72.32 72.91 73.31 73.48 73.58 73.28 68.49 64.43 73.27 73.24 73.49 73.68 69.37 64.32 65.66 65.57 64.84 64.08 66.97 71.28 71.14 71.23 70.72 72.15 74.64 73.83 73.87 74.03 74.74 66.89 61.88 59.58 57.42
69.80 69.36 69.12 69.22 66.53 69.48 62.19 60.63 63.28 70.92 70.45 71.23 72.81 73.44 65.32 70.86 64.18 61.47 71.78 72.88 72.08 72.61 73.73 73.65 73.09 68.49 65.27 68.89 62.90 69.84 71.87 70.60 71.50 71.70 74.39 73.42 73.94 73.46 75.07 71.16 64.71 62.18 62.39
MSLP
1021.13 1021.45 1021.55 1021.79 1021.92 1021.97 1022.08 1022.17 1022.27 1022.27 1022.13 1022.09 1022.19 1022.35 1022.55 1022.69 1022.87 1022.95 1022.95 1022.92 1022.99 1023.06 1023.15 1023.23 1023.27 1023.43 1023.45 1023.43 1023.45 1023.51 1023.51 1023.45 1023.41 1023.33 1023.19 1023.13 1023.09 1023.03 1022.90 1022.73 1022.63 1022.46 1022.25
1021.26 1021.48 1021.69 1021.83 1022.13 1022.22 1022.27 1022.41 1022.33 1022.30 1022.22 1022.25 1022.39 1022.65 1022.83 1022.95 1023.02 1023.11 1023.14 1023.25 1023.26 1023.35 1023.41 1023.47 1023.46 1023.50 1023.49 1023.45 1023.51 1023.51 1023.52 1023.49 1023.41 1023.29 1023.21 1023.19 1023.14 1022.99 1022.81 1022.68 1022.56 1022.49 1022.41
1021.33 1021.41 1021.54 1021.78 1021.94 1022.25 1022.35 1022.44 1022.44 1022.41 1022.42 1022.37 1022.61 1022.89 1023.06 1023.19 1023.20 1023.29 1023.37 1023.47 1023.50 1023.41 1023.51 1023.57 1023.53 1023.57 1023.57 1023.46 1023.42 1023.43 1023.39 1023.38 1023.34 1023.29 1023.23 1023.19 1023.09 1022.93 1022.72 1022.51 1022.47 1022.47 1022.43
1021.37 1021.50 1021.65 1021.77 1021.89 1022.05 1022.33 1022.41 1022.45 1022.63 1022.84 1022.78 1023.01 1023.22 1023.39 1023.43 1023.37 1023.39 1023.49 1023.53 1023.52 1023.46 1023.57 1023.49 1023.50 1023.53 1023.52 1023.39 1023.26 1023.23 1023.29 1023.27 1023.23 1023.21 1023.17 1023.07 1022.96 1022.81 1022.63 1022.47 1022.42 1022.39 1022.37
1021.38 1021.51 1021.67 1021.88 1021.85 1021.95 1022.27 1022.23 1022.65 1022.80 1023.02 1023.15 1023.23 1023.39 1023.45 1023.51 1023.40 1023.27 1023.41 1023.49 1023.50 1023.45 1023.47 1023.51 1023.49 1023.43 1023.35 1023.22 1023.17 1023.15 1023.14 1023.07 1023.06 1023.02 1022.97 1022.90 1022.75 1022.65 1022.51 1022.38 1022.29 1022.24 1022.21
1021.37 1021.44 1021.55 1021.89 1021.93 1022.05 1022.51 1022.63 1022.82 1023.02 1023.22 1023.37 1023.45 1023.55 1023.50 1023.40 1023.40 1023.34 1023.24 1023.23 1023.28 1023.29 1023.31 1023.39 1023.35 1023.29 1023.25 1023.19 1023.01 1022.99 1022.89 1022.85 1022.84 1022.80 1022.72 1022.60 1022.55 1022.47 1022.32 1022.19 1022.09 1022.04 1021.99
1021.33 1021.63 1021.70 1022.05 1022.10 1022.28 1022.54 1022.71 1023.04 1023.31 1023.51 1023.57 1023.71 1023.82 1023.61 1023.44 1023.33 1023.11 1023.08 1023.07 1023.00 1022.94 1023.03 1023.06 1023.13 1023.13 1023.07 1022.99 1022.84 1022.72 1022.57 1022.56 1022.53 1022.47 1022.35 1022.31 1022.25 1022.17 1022.10 1022.00 1021.94 1021.85 1021.75
1021.25 1021.56 1021.79 1021.94 1022.16 1022.38 1022.56 1022.80 1022.99 1023.38 1023.57 1023.63 1023.97 1024.23 1024.20 1023.66 1023.27 1023.03 1022.93 1022.87 1022.77 1022.74 1022.63 1022.66 1022.74 1022.73 1022.69 1022.61 1022.49 1022.42 1022.36 1022.31 1022.27 1022.15 1022.08 1022.02 1021.93 1021.85 1021.82 1021.75 1021.68 1021.56 1021.45
1021.02 1021.36 1021.71 1021.95 1022.06 1022.29 1022.58 1022.82 1022.93 1023.11 1023.47 1023.71 1023.86 1024.18 1024.44 1024.35 1023.95 1023.13 1022.93 1022.76 1022.61 1022.53 1022.39 1022.38 1022.39 1022.32 1022.29 1022.27 1022.21 1022.11 1022.02 1022.01 1021.95 1021.85 1021.73 1021.62 1021.57 1021.50 1021.47 1021.37 1021.25 1021.10 1020.96
1020.95 1021.24 1021.54 1021.76 1021.91 1022.20 1022.51 1022.59 1022.70 1023.07 1023.30 1023.58 1023.85 1024.09 1024.16 1024.27 1024.29 1023.87 1023.10 1022.74 1022.50 1022.28 1022.06 1022.07 1022.03 1021.93 1021.90 1021.92 1021.87 1021.75 1021.65 1021.63 1021.59 1021.46 1021.32 1021.14 1021.07 1020.99 1020.91 1020.76 1020.62 1020.51 1020.31
1020.85 1020.96 1021.26 1021.62 1021.81 1022.10 1022.25 1022.46 1022.78 1022.98 1023.15 1023.42 1023.73 1023.95 1024.04 1024.19 1024.29 1024.35 1023.80 1023.14 1022.56 1022.13 1021.86 1021.77 1021.65 1021.59 1021.55 1021.58 1021.50 1021.32 1021.25 1021.17 1021.08 1020.93 1020.79 1020.62 1020.42 1020.33 1020.24 1020.02 1019.86 1019.73 1019.58
1020.69 1020.95 1021.12 1021.45 1021.67 1022.00 1022.12 1022.20 1022.38 1022.76 1023.07 1023.27 1023.59 1023.81 1023.91 1024.07 1024.11 1024.21 1024.15 1023.67 1023.46 1022.51 1021.94 1021.61 1021.53 1021.41 1021.37 1021.27 1021.10 1020.89 1020.77 1020.69 1020.60 1020.41 1020.25 1020.05 1019.84 1019.63 1019.47 1019.21 1018.93 1018.70 1018.65
1020.53 1020.61 1020.79 1021.13 1021.42 1021.79 1021.87 1022.09 1022.35 1022.62 1022.91 1023.16 1023.41 1023.54 1023.76 1023.87 1023.90 1023.95 1024.12 1023.93 1023.71 1022.94 1022.27 1021.65 1021.38 1021.29 1021.14 1021.05 1020.85 1020.73 1020.45 1020.36 1020.19 1020.07 1019.81 1019.57 1019.31 1018.97 1018.73 1018.51 1018.27 1018.04 1017.90
1019.83 1019.91 1020.39 1020.76 1021.19 1021.41 1021.73 1022.05 1022.15 1022.41 1022.59 1023.01 1023.22 1023.39 1023.49 1023.64 1023.74 1023.82 1023.91 1023.99 1023.82 1023.43 1022.91 1022.21 1021.42 1021.26 1021.15 1020.94 1020.67 1020.43 1020.21 1020.05 1019.81 1019.53 1019.35 1019.07 1018.71 1018.45 1018.16 1017.93 1017.75 1017.53 1017.38
1019.42 1019.65 1019.89 1020.36 1020.83 1021.35 1021.47 1021.78 1022.12 1022.27 1022.52 1022.77 1023.01 1023.24 1023.36 1023.43 1023.56 1023.69 1023.78 1023.86 1023.92 1023.76 1023.27 1022.39 1022.00 1021.27 1021.07 1020.82 1020.67 1020.43 1020.21 1019.90 1019.66 1019.34 1019.03 1018.67 1018.29 1018.04 1017.71 1017.40 1017.27 1017.05 1016.79
1019.02 1019.39 1019.75 1019.97 1020.40 1020.83 1021.34 1021.59 1021.84 1021.93 1022.32 1022.63 1022.84 1023.06 1023.20 1023.29 1023.37 1023.45 1023.52 1023.62 1023.69 1023.62 1023.32 1022.69 1022.13 1021.72 1021.17 1020.83 1020.58 1020.35 1020.05 1019.81 1019.45 1019.19 1018.87 1018.47 1018.07 1017.76 1017.37 1017.00 1016.77 1016.61 1016.37
1018.67 1019.11 1019.43 1019.76 1020.09 1020.57 1020.81 1021.31 1021.61 1021.76 1022.06 1022.25 1022.55 1022.75 1022.83 1022.99 1023.14 1023.21 1023.33 1023.49 1023.49 1023.44 1023.18 1022.53 1022.37 1021.70 1021.36 1020.97 1020.43 1020.18 1019.97 1019.62 1019.31 1019.00 1018.58 1018.22 1017.83 1017.47 1017.09 1016.82 1016.55 1016.28 1016.07
1018.08 1018.43 1018.95 1019.39 1019.71 1019.98 1020.43 1020.82 1021.17 1021.34 1021.65 1021.88 1022.01 1022.32 1022.34 1022.55 1022.69 1022.83 1022.93 1023.03 1023.09 1023.07 1022.95 1022.52 1022.16 1021.75 1021.33 1020.75 1020.53 1020.26 1019.81 1019.42 1019.26 1018.77 1018.37 1018.00 1017.60 1017.17 1016.89 1016.63 1016.37 1016.15 1016.01
1017.54 1017.99 1018.46 1018.89 1019.21 1019.47 1019.86 1020.13 1020.50 1020.83 1021.04 1021.22 1021.46 1021.81 1021.86 1022.13 1022.25 1022.34 1022.47 1022.55 1022.62 1022.66 1022.67 1022.54 1022.12 1021.80 1021.29 1020.80 1020.33 1019.99 1019.67 1019.22 1019.01 1018.66 1018.05 1017.68 1017.31 1016.95 1016.74 1016.49 1016.40 1016.31 1016.24
1017.02 1017.27 1017.79 1018.24 1018.58 1018.89 1019.24 1019.51 1019.89 1020.21 1020.42 1020.62 1020.83 1021.11 1021.33 1021.52 1021.62 1021.69 1021.89 1022.01 1022.09 1022.17 1022.17 1022.17 1021.93 1021.59 1021.23 1020.77 1020.65 1020.27 1019.56 1019.31 1018.78 1018.31 1017.74 1017.55 1017.08 1016.77 1016.53 1016.45 1016.51 1016.52 1016.51
1016.52 1016.70 1017.05 1017.51 1017.93 1018.31 1018.61 1018.97 1019.26 1019.51 1019.73 1019.95 1020.18 1020.40 1020.53 1020.44 1020.75 1020.99 1021.32 1021.33 1021.57 1021.62 1021.70 1021.66 1021.47 1021.25 1020.89 1020.70 1020.55 1020.26 1019.98 1019.37 1018.61 1018.19 1017.99 1017.25 1016.67 1016.45 1016.13 1016.22 1016.78 1016.75 1016.67
1015.94 1016.18 1016.35 1016.65 1017.07 1017.44 1017.64 1018.10 1018.53 1018.89 1019.15 1019.37 1019.48 1019.68 1019.86 1020.09 1020.34 1020.42 1020.59 1020.61 1020.94 1021.09 1021.16 1021.14 1020.91 1020.73 1020.34 1020.35 1020.09 1020.14 1019.85 1019.38 1018.67 1018.01 1017.99 1016.88 1016.63 1016.37 1016.21 1016.70 1017.29 1017.29 1017.17
1015.11 1015.42 1015.73 1015.96 1016.18 1016.51 1016.79 1017.08 1017.56 1018.11 1018.30 1018.47 1018.66 1018.91 1019.21 1019.42 1019.57 1019.89 1020.03 1020.18 1020.27 1020.32 1020.52 1020.38 1020.27 1020.09 1019.82 1019.57 1019.57 1019.53 1019.57 1019.44 1018.90 1017.90 1017.94 1017.05 1016.47 1016.20 1016.45 1017.22 1017.51 1017.31 1017.21
1014.21 1014.44 1014.73 1015.15 1015.49 1015.70 1015.98 1016.27 1016.53 1017.07 1017.29 1017.43 1017.64 1017.91 1018.26 1018.52 1018.83 1019.11 1019.34 1019.42 1019.45 1019.37 1019.17 1019.34 1019.41 1019.12 1018.91 1018.68 1018.86 1018.87 1019.11 1019.01 1018.51 1017.55 1017.58 1017.11 1016.33 1016.19 1016.68 1017.05 1017.37 1017.20 1016.95
1013.42 1013.47 1013.69 1014.05 1014.40 1014.77 1015.15 1015.44 1015.98 1016.35 1016.37 1016.39 1016.61 1016.93 1017.29 1017.57 1017.86 1018.28 1018.67 1018.67 1018.63 1018.24 1018.01 1018.37 1018.33 1018.19 1018.18 1018.25 1018.49 1018.71 1018.60 1018.49 1017.69 1017.23 1017.01 1017.04 1016.41 1016.31 1016.33 1016.77 1017.32 1017.36 1017.43
1012.50 1012.80 1012.98 1013.13 1013.15 1013.36 1013.95 1014.40 1015.03 1015.51 1015.57 1015.62 1015.83 1016.01 1016.21 1016.54 1016.94 1017.45 1017.91 1017.97 1017.89 1017.40 1017.47 1017.41 1017.68 1017.55 1017.59 1017.43 1017.86 1017.93 1017.64 1017.55 1017.36 1016.97 1016.56 1016.81 1016.35 1016.31 1015.86 1016.34 1016.79 1017.24 1017.21
Wind_Speed
3 2 2 2 2 2 3 2 3 2 3 2 2 4 4 4 3 1 0 2 0 1 2 2 3 1 1 1 1 1 1 2 3 5 5 5 6 7 6 6 7 8 9
2 2 2 2 2 2 1 2 1 1 3 1 2 3 3 3 3 3 1 2 3 3 3 3 3 2 2 2 3 4 4 4 4 5 5 6 6 7 8 5 5 7 7
3 3 1 1 1 2 2 2 1 2 3 3 3 3 2 2 2 2 1 1 2 5 6 5 4 4 4 5 5 5 6 6 7 7 7 7 7 9 9 8 3 5 5
4 3 2 1 1 0 2 2 2 2 2 2 1 1 1 1 2 3 2 3 2 3 4 7 6 6 7 7 7 8 8 8 8 9 9 9 9 9 8 8 5 4 4
3 3 2 1 0 0 2 2 3 2 0 2 1 1 0 2 3 3 4 4 4 4 3 5 7 7 9 9 9 9 9 9 9 11 9 10 9 9 8 8 7 6 5
3 3 2 1 1 0 2 2 2 2 1 2 2 1 2 2 3 3 5 4 5 6 5 5 4 4 9 11 11 11 11 10 10 9 10 9 9 10 9 9 8 8 7
3 3 2 3 2 1 2 2 2 2 2 1 2 2 2 3 5 5 4 5 6 6 6 5 4 4 4 10 11 11 12 12 12 11 11 10 10 10 9 9 9 9 9
5 4 3 3 3 1 3 2 2 2 2 1 2 1 3 3 2 5 4 5 7 5 7 7 7 7 6 5 8 11 12 12 13 13 12 11 11 10 10 10 9 10 11
4 4 4 4 4 3 3 3 3 3 2 1 1 3 1 1 3 1 2 4 5 5 5 6 7 7 7 6 7 8 11 11 12 14 14 13 12 11 11 11 11 11 12
4 4 4 4 4 3 4 3 3 2 2 2 1 1 1 2 1 4 2 3 3 5 6 5 6 7 6 5 8 11 12 11 12 14 15 15 14 13 13 13 13 13 14
4 4 4 4 4 2 3 4 3 3 2 2 2 1 0 1 1 1 3 4 3 3 4 4 5 5 6 6 6 8 11 12 12 14 15 16 16 16 16 16 16 16 17
2 4 5 3 3 3 4 3 3 4 3 3 2 2 1 1 0 0 1 2 2 3 3 4 5 5 4 5 8 11 12 11 12 13 14 15 17 18 19 19 18 19 19
3 5 4 4 3 4 4 3 4 3 3 2 3 1 1 1 1 1 0 1 2 2 3 2 3 4 4 4 6 9 11 11 12 12 13 14 15 17 18 19 20 20 20
5 5 5 5 5 4 4 4 3 3 3 3 4 3 1 1 1 1 1 0 2 2 2 3 2 3 2 3 6 9 7 9 11 12 12 12 13 14 16 16 17 19 19
4 5 5 6 5 5 5 5 4 4 3 3 4 3 2 1 2 1 1 1 1 1 2 3 3 2 3 4 5 5 6 9 12 12 12 13 14 14 14 14 13 15 17
5 5 6 6 6 6 6 5 4 4 4 4 3 4 3 2 2 2 1 1 2 2 2 2 2 3 4 4 4 6 7 9 10 11 11 13 13 12 12 12 12 12 14
6 6 6 6 6 7 6 6 5 5 5 4 4 5 5 4 3 3 2 2 2 2 2 2 2 2 3 5 6 6 6 7 6 9 12 12 12 12 11 11 11 10 11
6 7 7 7 7 7 7 8 8 7 7 6 6 5 6 3 5 4 2 4 3 3 3 4 2 2 3 4 5 7 6 6 6 9 13 13 12 12 11 11 9 9 8
9 8 7 8 8 8 8 9 8 8 8 7 6 6 7 5 5 4 4 4 4 3 3 3 4 2 2 3 5 4 6 6 5 9 12 10 11 12 11 10 8 8 9
10 10 9 9 8 8 8 8 9 9 9 8 8 7 7 7 7 6 6 6 5 4 4 5 5 5 3 3 3 5 7 5 8 9 8 6 10 10 9 9 9 9 7
11 10 10 9 9 8 7 8 8 9 10 9 8 8 9 9 10 9 5 5 5 5 4 5 5 4 5 4 5 3 5 7 8 2 4 8 8 8 7 6 10 9 9
11 10 12 12 11 8 12 14 10 9 9 9 9 8 8 9 10 12 12 11 8 6 7 4 6 7 8 6 4 5 5 6 6 1 5 10 7 7 5 5 8 9 10
11 12 12 12 13 13 16 17 17 10 10 10 10 9 8 8 9 9 10 12 11 13 13 9 9 9 10 7 5 6 5 3 6 7 5 8 5 6 3 6 7 7 9
11 12 12 13 12 11 15 18 18 14 11 11 11 11 11 10 9 10 9 9 9 9 10 9 11 11 11 10 8 8 5 6 7 8 3 4 5 5 3 5 7 8 7
11 12 12 12 14 14 17 18 14 12 13 13 11 11 11 11 11 13 10 10 10 11 8 13 14 14 14 12 6 4 7 6 8 5 3 3 3 3 2 3 4 6 9
12 9 11 12 15 15 15 19 17 11 13 10 11 11 15 15 13 13 11 10 11 12 9 8 7 9 13 11 11 10 7 7 6 4 3 3 2 1 2 3 4 2 2
Wind_Direction
139 112 117 97 87 83 96 80 48 1 358 324 171 159 154 154 147 163 157 168 119 224 151 173 181 181 150 134 321 310 337 342 346 5 3 354 353 353 341 348 360 360 18
140 161 149 135 125 114 103 128 192 347 2 38 128 161 162 164 160 173 178 307 228 250 240 233 250 242 256 275 292 307 321 311 311 318 324 328 329 315 309 322 360 353 5
205 195 181 173 184 147 137 163 159 17 30 76 79 103 147 174 163 209 225 264 303 256 254 263 257 260 275 281 285 286 285 296 302 315 314 313 307 308 322 327 354 334 342
205 174 175 166 237 146 117 125 95 66 48 101 111 83 60 192 218 245 253 254 259 265 291 279 276 276 278 281 279 280 287 291 291 294 296 303 310 310 313 317 316 302 307
190 149 176 153 180 250 70 48 75 67 73 89 108 88 266 239 233 255 257 260 259 258 259 277 284 282 275 279 285 284 286 285 278 283 293 293 292 295 299 300 294 284 275
174 154 134 109 146 64 88 76 100 57 56 69 89 49 279 256 254 256 265 260 255 258 259 266 275 276 275 276 280 288 287 285 288 283 280 279 283 289 284 279 277 269 262
149 161 152 151 179 197 102 98 108 115 78 91 74 333 297 267 254 260 261 262 259 259 259 257 257 259 270 269 273 277 280 285 287 285 281 276 271 271 270 267 267 266 262
159 163 178 184 165 149 142 131 141 123 82 81 123 78 360 331 308 253 254 257 259 265 265 258 257 258 262 272 272 274 276 274 278 281 281 277 268 263 261 258 259 260 261
172 169 174 184 178 155 163 172 142 102 128 104 102 118 47 298 318 316 282 262 263 256 263 270 263 259 257 264 274 279 279 278 277 279 281 279 275 267 263 258 253 252 253
186 182 176 182 175 161 161 162 130 142 134 145 80 94 107 155 349 331 323 312 296 266 262 267 266 264 258 264 268 268 272 273 277 279 277 274 273 268 260 256 251 248 248
197 191 188 182 180 179 167 160 159 164 150 133 148 132 143 88 115 193 305 326 324 293 272 267 274 270 254 255 266 265 261 264 265 265 268 269 264 265 265 259 253 247 246
221 199 187 200 180 183 183 184 170 159 176 137 139 150 184 177 260 252 285 308 290 304 305 302 281 280 281 274 271 268 262 263 264 264 268 270 272 270 267 264 258 253 248
203 215 186 181 203 198 187 180 179 181 187 167 174 188 149 186 147 156 175 301 316 308 319 299 320 298 285 287 289 283 277 273 275 278 275 275 276 275 275 272 269 266 262
209 174 186 184 201 197 187 185 193 181 185 201 192 193 181 205 190 166 183 146 332 323 320 311 315 352 324 307 300 295 293 285 290 293 296 292 287 285 284 279 275 275 272
203 193 193 192 186 204 187 177 199 200 191 200 218 221 228 210 232 215 189 191 181 315 293 308 307 310 330 329 329 332 323 303 309 309 313 312 309 305 299 291 279 273 272
192 181 194 200 190 192 185 187 193 210 204 211 211 215 227 222 233 227 231 202 197 194 267 224 280 303 312 319 328 336 322 313 302 314 310 306 305 307 305 310 305 287 280
182 190 194 200 204 194 195 186 206 199 219 225 212 218 230 226 245 226 198 213 227 198 238 284 252 280 291 320 327 329 323 319 328 304 301 311 318 313 318 315 313 304 298
186 193 195 199 213 205 191 197 202 200 208 220 233 227 241 218 241 235 224 231 236 221 230 268 270 283 260 309 307 309 322 324 323 317 303 315 315 318 318 320 325 331 339
192 193 188 204 208 212 201 204 204 202 205 217 219 221 239 216 240 232 235 246 244 240 232 254 286 280 287 309 316 311 314 309 322 311 301 310 308 310 319 329 5 37 44
198 193 198 204 207 207 208 208 206 207 208 214 218 217 230 218 228 232 231 234 243 252 251 260 279 284 275 299 295 308 320 316 319 322 303 299 302 304 314 356 65 69 58
209 202 196 201 204 203 208 209 209 215 213 217 220 222 230 227 216 225 231 235 226 246 259 270 276 282 290 298 302 316 296 313 311 283 313 330 326 334 341 54 96 66 46
211 201 201 202 203 210 202 200 200 213 216 219 228 229 232 231 236 227 229 237 230 237 252 257 273 276 283 284 288 294 300 317 327 69 339 319 323 327 351 64 74 53 44
201 207 212 205 209 213 202 203 203 214 216 218 221 226 232 233 225 242 239 229 235 231 232 248 259 260 274 268 281 287 277 279 286 295 309 308 313 321 76 97 73 59 46
207 207 207 208 214 217 203 208 207 213 220 220 219 221 224 232 218 217 235 246 245 245 233 225 232 250 252 262 246 269 289 281 272 278 224 282 312 296 130 115 80 64 57
212 214 207 206 205 221 207 210 202 216 224 229 221 220 219 231 225 205 226 245 250 253 239 229 230 236 242 247 239 276 275 278 296 289 219 257 299 293 206 163 139 68 43
220 219 222 215 214 216 204 208 200 219 227 229 230 227 216 227 215 198 214 233 246 255 252 253 242 247 245 248 219 217 249 256 268 273 175 209 249 261 281 132 155 82 35